Retour au catalogue

STARLINK-32843

ActifCommunicationsVLEO
NORAD 62814·PAYLOAD·🇺🇸 United States

Lancé Jan 24, 2025 depuis Vandenberg Space Force Base

Loading…

Prochains Passages (prochaines 24 heures)

TLE

FraisSource: CelesTrak SupGP

Époque: Sep 15, 2026, 02:25 UTC

1 62814C 25018J   26258.10118056  .00009655  00000+0  31051-3 0  2587
2 62814  53.1578 148.4190 0001329  87.7105  57.5431 15.31694826    13

Suivez STARLINK-32843 en temps réel avec AllMySat

Download on the App Store